Weather History for KTVL - February, 2015

Change the Weather History Date:

Thursday, February 12, 2015

  Actual Average Record
Temperature  
Mean Temperature 45 °F 30 °F  
Max Temperature 61 °F 44 °F 61 °F (2015)
Min Temperature 29 °F 17 °F -10 °F (1994)
Degree Days  
Heating Degree Days 20 35  
Month to date heating degree days 270 420  
Since 1 July heating degree days 3440 4702  
Cooling Degree Days 0 0  
Month to date cooling degree days 0 0  
Year to date cooling degree days 0 0  
Moisture  
Dew Point 30 °F    
Average Humidity 62    
Maximum Humidity 85    
Minimum Humidity 39    
Precipitation  
Precipitation 0.00 in - 1.29 in (1958)
Month to date precipitation 3.86  
Year to date precipitation 3.96  
Sea Level Pressure  
Sea Level Pressure 30.33 in    
Wind  
Wind Speed 2 mph (South)    
Max Wind Speed 10 mph    
Max Gust Speed 14 mph    
Visibility 10 miles    
Events      
T = Trace of Precipitation, MM = Missing Value Source: NWS Daily Summary

Daily Weather History Graph

Daily Weather History Graph

Search for Another Location

Airport or City:

Trip Planner

Search our weather history database for the weather conditions in past years. The results will help you decide how hot, cold, wet, or windy it might be!

Date:

Astronomy

Feb. 12, 2015 Rise Set
Actual Time 6:54 AM PST 5:33 PM PST
Civil Twilight 6:27 AM PST 6:01 PM PST
Nautical Twilight 5:56 AM PST 6:32 PM PST
Astronomical Twilight 5:25 AM PST 7:03 PM PST
Moon 1:02 AM PST (2/12) 11:34 AM PST (2/12)
Length of Visible Light 11h 33m
Length of Day
10h 39m
Last Quarter, 43% of the Moon is Illuminated
Feb 12
Last Quarter
Feb 18
New
Feb 25
First Quarter
Mar 5
Full
Mar 13
Last Quarter

Hourly Weather History & Observations

Time (PST) Temp. Windchill Dew Point Humidity Pressure Visibility Wind Dir Wind Speed Gust Speed Precip Events Conditions
12:53 AM 32.0 °F - 27.0 °F 82% 30.32 in 10.0 mi Calm Calm - N/A   Clear
1:53 AM 30.9 °F - 26.1 °F 82% 30.33 in 10.0 mi Calm Calm - N/A   Clear
2:53 AM 30.9 °F 27.5 °F 26.1 °F 82% 30.31 in 10.0 mi South 3.5 mph - N/A   Clear
3:53 AM 30.0 °F - 26.1 °F 85% 30.31 in 10.0 mi Calm Calm - N/A   Clear
4:53 AM 30.0 °F 24.1 °F 25.0 °F 82% 30.33 in 10.0 mi South 5.8 mph - N/A   Clear
5:53 AM 30.0 °F - 25.0 °F 82% 30.36 in 10.0 mi Calm Calm - N/A   Clear
6:53 AM 30.0 °F - 25.0 °F 82% 30.38 in 10.0 mi Calm Calm - N/A   Clear
7:53 AM 30.0 °F - 26.1 °F 85% 30.40 in 10.0 mi Calm Calm - N/A   Clear
8:53 AM 37.0 °F - 30.0 °F 76% 30.40 in 10.0 mi Calm Calm - N/A   Clear
9:53 AM 46.9 °F - 33.1 °F 59% 30.36 in 10.0 mi Calm Calm - N/A   Clear
10:53 AM 53.1 °F - 30.0 °F 41% 30.34 in 10.0 mi Calm Calm - N/A   Clear
11:53 AM 54.0 °F - 34.0 °F 47% 30.32 in 10.0 mi Variable 3.5 mph - N/A   Clear
12:53 PM 57.9 °F - 35.1 °F 42% 30.28 in 10.0 mi NNE 5.8 mph - N/A   Clear
1:53 PM 61.0 °F - 35.1 °F 38% 30.26 in 10.0 mi Variable 3.5 mph - N/A   Clear
2:53 PM 59.0 °F - 36.0 °F 42% 30.26 in 10.0 mi NNE 10.4 mph - N/A   Clear
3:53 PM 59.0 °F - 35.1 °F 41% 30.26 in 10.0 mi NNE 4.6 mph - N/A   Clear
4:53 PM 50.0 °F - 37.9 °F 63% 30.29 in 10.0 mi Calm Calm - N/A   Clear
5:53 PM 46.0 °F - 36.0 °F 68% 30.31 in 10.0 mi Calm Calm - N/A   Clear
6:53 PM 42.1 °F - 34.0 °F 73% 30.34 in 10.0 mi Calm Calm - N/A   Clear
7:53 PM 39.0 °F 36.8 °F 32.0 °F 76% 30.36 in 10.0 mi South 3.5 mph - N/A   Clear
8:53 PM 36.0 °F - 30.0 °F 79% 30.35 in 10.0 mi Calm Calm - N/A   Clear
9:53 PM 35.1 °F 32.2 °F 30.0 °F 82% 30.33 in 10.0 mi South 3.5 mph - N/A   Clear
10:53 PM 34.0 °F 31.0 °F 28.0 °F 79% 30.32 in 10.0 mi South 3.5 mph - N/A   Clear
11:53 PM 33.1 °F 30.0 °F 28.0 °F 82% 30.31 in 10.0 mi SSW 3.5 mph - N/A   Clear